User: anonymous   Login
Location: Bergen
(60.3910°N, 5.3250°E)
Time: 03:52:09
(UTC+02:00)
Language:

Cosmos 1943 - Orbit

View from above orbital plane
View from above orbital plane
View from above satellite
View from above satellite

Ground track
Ground track

The orbit data is extracted from the following two-line orbital elements,

1 19119U 88039A   16180.23739894 -.00000146  00000-0 -50781-4 0  9998
2 19119  71.0040 125.0633 0013512 242.0385 217.3953 14.15069532452020
Epoch (UTC): 28 June 2016 05:41:51
Eccentricity: 0.0013512
inclination: 71.0040°
perigee height: 832 km
apogee height: 852 km
right ascension of ascending node: 125.0633°
argument of perigee: 242.0385°
revolutions per day: 14.15069532
mean anomaly at epoch: 217.3953°
orbit number at epoch: 45202

The dashed part of the orbit path shows where the satellite is in the earth's shadow,  

DLR